Legenda:
Basso (0-210)
Molto Alto (490 - 630)

Moderato (210 - 350)
Estremo (630 - 800)

Alto (350 - 490)
Molto estremo (800+)


 
139.98
Date Temp. (°C) Wind Speed (km/h) Rain (mm) RH Days Since Rain pwsFWI
La previsione è attiva (incluso oggi!), I valori sono sopra la linea rossa.
03/12/21 15.00 20.00 0.00 0.60 1 142.11
02/12/21 16.00 19.00 0.40 0.68 0 163.99
01/12/21 16.00 16.00 0.00 0.66 3 194.17
30/11/21 14.00 22.00 0.00 0.48 2 173.43
29/11/21 12.00 31.00 0.00 0.59 1 135.93
29/11/21 10.90 27.00 1.80 0.53 0 139.98
28/11/21 14.30 28.00 0.00 0.45 2 125.46
27/11/21 16.40 27.00 0.00 0.51 1 92.26
26/11/21 16.00 26.00 2.10 0.64 0 71.50
25/11/21 17.70 24.00 1.50 0.69 0 86.06
24/11/21 19.00 22.00 0.90 0.75 0 93.04
23/11/21 17.60 21.00 4.20 0.80 0 97.25
22/11/21 18.10 12.00 0.00 0.64 1 69.93
21/11/21 16.40 12.00 0.90 0.72 0 70.92
20/11/21 19.10 11.00 0.00 0.66 3 116.15
19/11/21 19.30 17.00 0.00 0.71 2 123.23
18/11/21 19.20 16.00 0.00 0.72 1 116.47
17/11/21 18.50 19.00 7.20 0.68 0 104.20
16/11/21 19.70 22.00 8.10 0.70 0 105.66
15/11/21 19.80 27.00 0.00 0.56 1 96.58
14/11/21 17.60 18.00 0.60 0.66 0 40.84
13/11/21 20.60 12.00 0.00 0.72 1 17.27
12/11/21 19.50 22.00 3.00 0.71 0 17.57
11/11/21 18.60 22.00 31.50 0.80 0 69.81
10/11/21 19.20 28.00 56.10 0.74 0 74.31
09/11/21 19.40 28.00 7.80 0.74 0 91.35
08/11/21 19.30 15.00 1.50 0.69 0 124.63
07/11/21 15.40 3.00 0.00 0.70 1 81.44
07/11/21 21.90 36.00 0.60 0.68 0 141.37
06/11/21 17.50 30.00 1.20 0.78 0 135.68
CumulusUtils Version 2.1.7 © Hans Rottier
Science background here. - NOTE: Behavioural testing still under way!
Prediction courtesy of https://www.yourweather.co.uk/